Location: Équennes
(49.7375°N, 1.9622°E)
Time: 19:21:40
(UTC+00:00)

CZ-6A DEB - Visible Passes

Search period start: 02 March 2024 00:00
Search period end: 12 March 2024 00:00
Orbit: 785 x 849 km, 98.8° (Epoch: 01 March)

Date Brightness Start Highest point End Pass type
(mag) Time Alt. Az. Time Alt. Az. Time Alt. Az.
02 Mar ? 04:59:05 10° ENE 05:01:03 12° E 05:03:00 10° ESE visible
02 Mar ? 18:02:50 10° S 18:08:07 48° W 18:13:28 10° NNW visible
03 Mar ? 19:25:29 10° WSW 19:27:21 12° W 19:29:13 10° WNW visible
04 Mar ? 05:53:30 10° NNE 05:58:25 33° E 06:03:13 10° SSE visible
04 Mar ? 19:01:39 10° SW 19:05:17 18° W 19:08:57 10° NW visible
05 Mar ? 05:32:14 10° NE 05:36:29 23° E 05:40:39 10° SE visible
05 Mar ? 18:38:46 10° SSW 18:43:19 26° W 18:47:54 10° NW visible
06 Mar ? 05:11:22 10° NE 05:14:28 15° E 05:17:32 10° ESE visible
06 Mar ? 18:16:20 10° SSW 18:21:25 38° W 18:26:33 10° NNW visible
08 Mar ? 19:15:54 10° WSW 19:18:41 14° W 19:21:29 10° NW visible
09 Mar ? 05:45:10 10° NE 05:49:48 28° E 05:54:21 10° SSE visible
09 Mar ? 18:52:35 10° SW 18:56:39 21° W 19:00:45 10° NW visible
10 Mar ? 05:24:01 10° NE 05:27:50 19° E 05:31:34 10° SE visible
10 Mar ? 18:29:54 10° SSW 18:34:42 30° W 18:39:33 10° NNW visible
11 Mar ? 05:03:29 10° ENE 05:05:46 13° E 05:08:02 10° ESE visible
